Tracking 19817 objects as of 17-Aug-2019
HD Live streaming from Space Station
objects crossing your sky now

COSMOS 531

Track COSMOS 531 now!
10-day predictions
COSMOS 531 is classified as:


NORAD ID: 6266
Int'l Code: 1972-087D
Perigee: 1,428.1 km
Apogee: 1,475.5 km
Inclination: 74.0 °
Period: 114.8 minutes
Semi major axis: 7822 km
RCS: 0.7441 m2 (medium)
Launch date: November 1, 1972
Source: Commonwealth of Independent States (former USSR) (CIS)
Launch site: PLESETSK MISSILE AND SPACE COMPLEX (PKMTR)
aabbcc
Your satellite tracking list
Your tracking list is empty




NASA's NSSDC Master Catalog

Two Line Element Set (TLE):
1  6266U 72087D   19228.94007260 -.00000026 +00000-0 -60212-4 0  9999
2  6266 074.0323 221.1637 0030295 111.0299 287.4708 12.54759800143202
Source of the keplerian elements: AFSPC